Flag Weather past 2 weeks in Monticello, Kentucky, U.S.A.

Now
31 °F

Overcast.


Feels Like: 25 °F
Forecast: 22 / 42 °F
Wind: 6 mph from West

Location: London-Corbin Airport-Magee Field

Current Time: Nov 27, 2014 at 7:42:40 PM

Latest Report: Nov 27, 2014 at 6:53 PM


Visibility: 10 mi

Pressure: 30.40 "Hg

Humidity: 76%

Dew point: 24 °F

Location of MonticelloLocation

Historic Weather in Monticello — Graph

°F

Monticello temperature yesterday

Maximum temperature yesterday: 49 °F (at 2:53 PM)
Minimum temperature yesterday: 35 °F (at 8:53 AM)
Average temperature yesterday: 41 °F

Past Weeks' High & Low Weather Summary

 TemperatureHumidityPressure
High70 °F (Nov 24, 11:53 AM)93% (Nov 16, 7:53 PM)30.52 "Hg (Nov 16, 7:53 PM)
Low16 °F (Nov 19, 12:53 AM)26% (Nov 21, 2:53 PM)29.44 "Hg (Nov 23, 9:53 PM)
Average38 °F62%30.14 "Hg
* Reported Nov 12 5:53 PM — Nov 27 5:53 PM, Monticello, Weather by CustomWeather, © 2014

Note: Actual official high and low records may vary slightly from our data, if they occured in-between our weather recording intervals... More about our weather records

Advertising

Monticello weather history for previous 24 hours

 ConditionsComfort  
Time TempWeatherWind HumidityBarometerVisibility
5:53 PM
Nov 27
31 °FOvercast.8 mph76%30.38 "Hg10 mi
4:53 PM31 °FOvercast.8 mph79%30.37 "Hg10 mi
4:04 PM31 °FLight snow. Mostly cloudy.12 mph79%30.33 "Hg4 mi
3:53 PM31 °FLight snow. More clouds than sun.9 mph79%30.36 "Hg2 mi
2:53 PM31 °FOvercast.7 mph76%30.34 "Hg5 mi
1:53 PM31 °FOvercast.14 mph73%30.33 "Hg10 mi
12:53 PM32 °FOvercast.13 mph79%30.30 "Hg9 mi
11:53 AM33 °FOvercast.9 mph78%30.30 "Hg9 mi
10:53 AM34 °FMostly cloudy.15 mph79%30.29 "Hg10 mi
10:04 AM34 °FMore clouds than sun.8 mph79%30.24 "Hg9 mi
9:53 AM34 °FMostly cloudy.7 mph79%30.25 "Hg10 mi
8:53 AM34 °FMostly cloudy.10 mph82%30.23 "Hg9 mi
8:00 AM34 °FFog.8 mph85%30.18 "Hg6 mi
6:53 AM34 °FLight snow. Fog.7 mph88%30.14 "Hg3 mi
6:01 AM34 °FLight snow. Fog.7 mph88%30.09 "Hg2 mi
5:01 AM34 °FLight snow. Fog.5 mph88%30.05 "Hg2 mi
3:53 AM34 °FLight snow. Fog.3 mph92%30.03 "Hg2 mi
2:53 AM35 °FLight snow. Fog.3 mph88%30.02 "Hg5 mi
1:53 AM36 °FLight rain. Mostly cloudy.5 mph85%30.00 "Hg10 mi
12:53 AM36 °FLight rain. Mostly cloudy.3 mph85%30.01 "Hg10 mi
11:53 PM
Nov 26
38 °FLight rain. Overcast.6 mph76%30.02 "Hg10 mi
10:53 PM40 °FMostly cloudy.8 mph60%30.03 "Hg10 mi
9:53 PM40 °FOvercast.No wind65%30.02 "Hg10 mi
8:53 PM40 °FOvercast.No wind58%30.01 "Hg10 mi
7:53 PM41 °FPassing clouds.No wind53%30.00 "Hg10 mi
Weather by CustomWeather, © 2014

See weather overviewHow to use our weather pages